Terminal Aerodrome Forecast
Issued by NWS Houston/Galveston, TX

Home | Current Version | Previous Version | Text Only | Print | Product List | Glossary On
Versions: 1 2 3 4 5 6 7 8 9 10 11 12 13 14 15 16 17 18 19 20 21 22 23 24 25 26 27 28 29 30 31 32 33 34 35 36 37 38 39 40 41 42 43 44 45 46 47 48 49 50
000
FTUS44 KHGX 241301 AAA
TAFGLS
TAF AMD
KGLS 241301Z 2413/2512 20014KT P6SM -TSRA FEW050CB BKN100 OVC110
     FM241400 17015KT P6SM VCSH SCT007 BKN035 OVC250
      TEMPO 2414/2415 -RA
     FM241600 16015G25KT P6SM SCT040 BKN250
     FM250300 16017KT P6SM BKN050
     FM250800 16017KT P6SM VCSH BKN025 BKN250
      TEMPO 2509/2512 4SM +SHRA=

USA.gov is the U.S. government's official web portal to all federal, state and local government web resources and services.